Skip Page Navigation
NASA JPL Caltech
NASA Logo - Jet Propulsion Laboratory + View the NASA Portal
+ Center for Near-Earth Object Studies
JPL Home Earth Solar System Stars & Galaxies Technology
JPL Solar System Dynamics
BODIES ORBITS EPHEMERIDES TOOLS PHYSICAL DATA DISCOVERY FAQ SITE MAP
IMPORTANT: The SSD Announcement email list is now available. Major changes are coming in the near future, including possible hostname and/or URL changes. To be notified of such changes, subscribe to this email list.

Please visit this page for more details.


JPL Small-Body Database Browser
Search: [ help ]  
17432 (1989 SR)
Classification: Main-belt Asteroid          SPK-ID: 2017432
Ephemeris | Orbit Diagram | Orbital Elements | Mission Design | Physical Parameters | Discovery Circumstances ]

[ show orbit diagram ]
Orbital Elements at Epoch 2458600.5 (2019-Apr-27.0) TDB
Reference: JPL 26 (heliocentric ecliptic J2000)
 Element Value Uncertainty (1-sigma)   Units 
e .09500669158770889 5.2416e-08  
a 2.993410580641729 2.0136e-08 au
q 2.709016544811316 1.5417e-07 au
i 8.887894863028723 5.2475e-06 deg
node 239.8360872843006 3.0994e-05 deg
peri 126.7095953605701 3.9727e-05 deg
M 263.9755706820332 2.6695e-05 deg
tp 2459105.076587197139
(2020-Sep-12.57658720)
0.00014247 TDB
period 1891.680822069542
5.18
1.9087e-05
5.226e-08
d
yr
n .1903069459710184 1.9202e-09 deg/d
Q 3.277804616472142 2.2049e-08 au
  Orbit Determination Parameters
   # obs. used (total)      1653  
   data-arc span      10981 days (30.06 yr)  
   first obs. used      1989-09-29  
   last obs. used      2019-10-23  
   planetary ephem.      DE431  
   SB-pert. ephem.      SB431-N16  
   condition code      0  
   norm. resid. RMS      .50452  
   source      ORB  
   producer      Otto Matic  
   solution date      2019-Nov-07 04:08:22  

Additional Information
 Earth MOID = 1.71944 au 
 Jupiter MOID = 2.21244 au 
 T_jup = 3.230 
[ show covariance matrix ]

Ephemeris | Orbit Diagram | Orbital Elements | Mission Design | Physical Parameters | Discovery Circumstances ]

Physical Parameter Table
Parameter Symbol Value Units Sigma Reference Notes
absolute magnitude H 12.9   n/a MPO358799  
diameter diameter 8.341 km 1.092 urn:nasa:pds:neowise_diameters_albedos::2.0[mainbelt] (http://adsabs.harvard.edu/abs/2012ApJ...759L...8M)  
rotation period rot_per 4.089 h n/a LCDB (Rev. 2019-January); Warner et al., 2009 Result based on less than full coverage, so that the period may be wrong by 30 percent or so.
Published Reference List:
[Waszczak, A.; Chang, C.-K.; Ofeck, E.O.; Laher, F.; et al. (2015) Astron. J. 150, A75.]
geometric albedo albedo 0.211   0.080 urn:nasa:pds:neowise_diameters_albedos::2.0[mainbelt] (http://adsabs.harvard.edu/abs/2012ApJ...759L...8M)  

17432 (1989 SR)          Discovered 1989-Sep-29 by Ueda, S., Kaneda, H. at Kushiro
Reference: 20001013/Numbers.arcLast Updated: 2004-04-19

Alternate Designations
 1989 SR = 1994 RH1 
Ephemeris | Orbit Diagram | Orbital Elements | Mission Design | Physical Parameters | Discovery Circumstances ]
ABOUT SSD CREDITS/AWARDS PRIVACY/COPYRIGHT GLOSSARY LINKS
FirstGov 2020-Jan-17 22:03 UT
(server date/time)  
NASA Home Page
Site Manager:   Ryan S. Park
Webmaster  Alan B. Chamberlin